Flag Weather past 2 weeks in Lexington, Virginia, U.S.A.

Now
N/A

Snow.


Feels Like: N/A
Forecast: 33 / 44 °F
Wind: N/A

Location: Hot Springs / Ingalls

Current Time: Nov 26, 2014 at 12:52:36 PM

Latest Report: Nov 26, 2014 at 11:35 AM


Visibility: 0 mi

Pressure: N/A

Humidity: N/A

Dew point: N/A

Location of LexingtonLocation

Historic Weather in Lexington — Graph

°F

Lexington temperature yesterday

Maximum temperature yesterday: 50 °F (at 12:15 AM)
Minimum temperature yesterday: 35 °F (at 7:55 AM)
Average temperature yesterday: 40 °F

Past Weeks' High & Low Weather Summary

 TemperatureHumidityPressure
High63 °F (Nov 11, 1:15 PM)100% (Nov 12, 9:55 PM)30.34 "Hg (Nov 12, 9:55 PM)
Low8 °F (Nov 19, 5:15 AM)10% (Nov 22, 5:15 AM)29.53 "Hg (Nov 17, 12:55 PM)
Average33 °F65%29.99 "Hg
* Reported Nov 11 11:15 AM — Nov 26 11:35 AM, Lexington, Weather by CustomWeather, © 2014

Note: Actual official high and low records may vary slightly from our data, if they occured in-between our weather recording intervals... More about our weather records

Advertising

Lexington weather history for previous 24 hours

 ConditionsComfort  
Time TempWeatherWind HumidityBarometerVisibility
11:35 AM
Nov 26
N/ASnow.N/AN/AN/A0 mi
11:15 AM32 °FSnow. Low clouds.7 mph100%29.90 "Hg0 mi
10:55 AM32 °FLight snow. Low clouds.6 mph100%29.90 "Hg0 mi
10:35 AM32 °FLight snow. Low clouds.3 mph100%29.92 "Hg1 mi
10:15 AM32 °FHeavy snow. Low clouds.3 mph100%29.92 "Hg0 mi
9:55 AM32 °FSnow. Low clouds.3 mph100%29.92 "Hg0 mi
9:15 AM32 °FSnow. Low clouds.3 mph100%29.91 "Hg0 mi
8:55 AM32 °FSnow. Low clouds.5 mph100%29.91 "Hg0 mi
8:35 AM31 °FSnow. Low clouds.3 mph100%29.91 "Hg0 mi
8:15 AM32 °FLight snow. Low clouds.No wind100%29.92 "Hg0 mi
7:55 AM31 °FSnow. Low clouds.No wind100%29.89 "Hg0 mi
7:35 AM31 °FSnow. Low clouds.6 mph100%29.89 "Hg0 mi
7:15 AM31 °FSnow. Low clouds.7 mph100%29.91 "Hg0 mi
6:55 AM32 °FSnow. Low clouds.7 mph100%29.92 "Hg0 mi
6:15 AM32 °FHeavy snow. Low clouds.No wind100%29.93 "Hg1 mi
5:55 AM32 °FHeavy snow. Low clouds.3 mph100%29.93 "Hg0 mi
5:35 AM33 °FHeavy snow. Low clouds.No wind100%29.91 "Hg1 mi
5:15 AM32 °FSnow. Low clouds.5 mph100%29.93 "Hg1 mi
4:55 AM32 °FSnow. Low clouds.5 mph100%29.94 "Hg0 mi
4:15 AM34 °FLight snow. Overcast.7 mph93%29.96 "Hg1 mi
3:55 AM35 °FLight snow. Mostly cloudy.6 mph85%29.96 "Hg5 mi
3:15 AM37 °FLight snow. Overcast.3 mph59%29.97 "Hg7 mi
2:55 AM38 °FOvercast.No wind60%29.99 "Hg10 mi
2:35 AM37 °FOvercast.No wind56%30.00 "Hg10 mi
2:15 AM38 °FOvercast.10 mph52%30.00 "Hg10 mi
1:55 AM38 °FMostly cloudy.9 mph48%30.01 "Hg10 mi
1:15 AM39 °FOvercast.6 mph43%30.01 "Hg10 mi
12:55 AM40 °FOvercast.5 mph44%30.03 "Hg10 mi
12:15 AM40 °FOvercast.3 mph44%30.06 "Hg10 mi
11:55 PM
Nov 25
40 °FOvercast.3 mph43%30.05 "Hg10 mi
11:35 PM40 °FPassing clouds.No wind41%30.07 "Hg10 mi
11:15 PM40 °FPassing clouds.No wind45%30.06 "Hg10 mi
10:55 PM40 °FClear.No wind46%30.05 "Hg10 mi
10:35 PM40 °FClear.3 mph46%30.07 "Hg10 mi
10:15 PM40 °FClear.No wind46%30.07 "Hg10 mi
9:55 PM40 °FClear.No wind44%30.08 "Hg10 mi
9:35 PM40 °FClear.3 mph43%30.06 "Hg10 mi
9:15 PM40 °FClear.6 mph46%30.00 "Hg10 mi
8:55 PM40 °FClear.5 mph45%30.05 "Hg10 mi
8:35 PM40 °FClear.3 mph41%30.07 "Hg10 mi
8:15 PM40 °FClear.No wind42%30.06 "Hg10 mi
7:55 PM40 °FClear.3 mph42%30.05 "Hg10 mi
7:35 PM41 °FClear.No wind41%30.05 "Hg10 mi
7:15 PM41 °FClear.No wind46%30.05 "Hg10 mi
6:55 PM41 °FClear.7 mph47%30.05 "Hg10 mi
6:15 PM40 °FClear.8 mph48%30.04 "Hg10 mi
5:55 PM41 °FClear.9 mph47%30.02 "Hg10 mi
5:35 PM41 °FClear.10 mph47%30.02 "Hg10 mi
5:15 PM41 °FClear.10 mph47%30.01 "Hg10 mi
4:55 PM42 °FSunny.10 mph44%30.00 "Hg10 mi
4:15 PM44 °FSunny.6 mph43%30.00 "Hg10 mi
3:55 PM44 °FSunny.10 mph41%30.00 "Hg10 mi
3:35 PM45 °FSunny.9 mph42%30.00 "Hg10 mi
3:15 PM44 °FSunny.10 mph42%29.99 "Hg10 mi
2:55 PM44 °FSunny.12 mph43%30.00 "Hg10 mi
2:35 PM44 °FSunny.12 mph42%30.00 "Hg10 mi
2:15 PM44 °FSunny.14 mph43%30.00 "Hg10 mi
1:55 PM43 °FSunny.13 mph48%29.99 "Hg10 mi
1:35 PM42 °FSunny.13 mph50%30.00 "Hg10 mi
1:15 PM40 °FSunny.12 mph53%30.00 "Hg10 mi
12:55 PM40 °FSunny.13 mph54%30.01 "Hg10 mi
12:35 PM40 °FSunny.14 mph55%30.02 "Hg10 mi
12:15 PM39 °FSunny.15 mph54%30.02 "Hg10 mi
Weather by CustomWeather, © 2014

See weather overviewHow to use our weather pages